Location: Roland
(31.1349°N, 85.4372°W)
Time: 04:44:39
(UTC+00:00)

Courier 1B - Pass Details

Date: 23 April 2021
Orbit: 962 x 1209 km, 28.3° (Epoch: 07 May)

Event Time Altitude Azimuth Distance (km) Brightness Sun altitude
Rises 18:02:41 0° 258° (WSW) 3,788 10.7 70.9°
Reaches altitude 10° 18:05:28 10° 256° (WSW) 2,801 10.2 70.7°
Maximum altitude 18:12:11 68° 175° (S) 1,053 10.1 70.2°
Drops below altitude 10° 18:18:37 10° 93° (E) 2,694 9.9 69.6°
Sets 18:21:14 0° 91° (E) 3,634 10.4 69.3°
